Other Public Products
Issued by NWS Charleston, SC

Current Version | Previous Version | Graphics & Text | Print | Product List | Glossary On
Versions: 1 2 3 4 5 6 7 8 9 10 11 12 13 14 15 16 17 18 19 20 21 22 23 24 25 26 27 28 29 30 31 32 33 34 35 36 37 38 39 40 41 42 43 44 45 46 47 48 49 50
000
FPUS82 KCHS 241312
OPUCHS

TEST...KCHS/KSAV Gateway Observations...TEST
National Weather Service Charleston SC
800 AM EST FRI NOV 24 2017

NOTE: "fair" indicates few or no clouds below 12,000 feet with no
significant weather and/or obstructions to visibility.

SCZ050-WAZ558-NCZ071-TXZ119-213-PAZ071-DCZ001-FLZ074-172-MI076-
NYZ176-178-MAZ016-IL014-TNZ027-NJZ106-GAZ044-MD014-241400-

...Gateway Observations for Charleston International...

CITY           SKY/WX    TMP DP  RH WIND       PRES   REMARKS
Chas Airport   CLOUDY    43  38  82 N8        30.00R
Seattle        MOCLDY    47  42  83 S15       30.06R
Charlotte      CLEAR     33  32  96 E3        30.07S
Dallas DFW     PTCLDY    45  33  63 S9        29.93S
Dallas Love    PTCLDY    44  33  65 SE7       29.96S
Philladelphia  CLEAR     34  29  82 W6        30.09R WCI  29
Wash National  CLEAR     35  32  88 CALM      30.10R
Baltimore      PTCLDY    30  26  85 CALM      30.09R
Miami          PTSUNNY   74  71  91 SW6       29.88R
Detroit        PTCLDY    31  25  78 S10       29.88F WCI  22
Newark         PTCLDY    33  23  66 SW3       30.07R
Laguardia      PTCLDY    41  23  48 CALM      30.06R
J F K          PTCLDY    37  26  64 W8        30.07S WCI  31
Boston Logan   MOSUNNY   35  24  64 SW9       30.02R WCI  28
Ft. Lauderdale PTSUNNY   72  71  97 W7        29.87R
Chicago O`Hare PTCLDY    38  28  67 S7        29.75F WCI  33
Chicago Midway PTCLDY    38  29  70 SW12      29.78S WCI  30
Houston Bush   PTCLDY    39  37  92 CALM      30.04R
Houston Hobby  PTCLDY    42  40  92 CALM      30.03S
Nashville      CLOUDY    31  26  82 CALM      30.02R
Atlanta        PTCLDY    43  38  82 NE5       30.04R

$$

GAZ044-118-TXZ119-213-NCZ071-DCZ001-MDZ014-506-PAZ021-071-NJZ106-
NYZ176-178-MAZ106-OHZ011-021-055-MIZ076-KYZ091-ILZ014-INZ047-
MNZ060-ONZ431-241400-

...Gateway Observations for Savannah International...

CITY           SKY/WX    TMP DP  RH WIND       PRES   REMARKS
Savannah Arpt  CLOUDY    44  39  82 N8        30.00R
Atlanta        PTCLDY    43  38  82 NE5       30.04R
Charlotte      CLEAR     33  32  96 E3        30.07S
Dallas DFW     PTCLDY    45  33  63 S9        29.93S
Houston Bush   PTCLDY    39  37  92 CALM      30.04R
Wash National  CLEAR     35  32  88 CALM      30.10R
Wash Dulles    CLOUDY    29  26  89 CALM      30.09R
Baltimore      PTCLDY    30  26  85 CALM      30.09R
Philadelphia   CLEAR     34  29  82 W6        30.09R WCI  29
Newark         PTCLDY    33  23  66 SW3       30.07R
Laguardia      PTCLDY    41  23  48 CALM      30.06R
J F K          PTCLDY    37  26  64 W8        30.07S WCI  31
Boston         MOSUNNY   35  24  64 SW9       30.02R WCI  28
Pittsburg      CLOUDY    26  22  84 S3        30.01R
Akron          CLEAR     30  22  72 S7        29.96F WCI  23
Cleveland      CLEAR     35  24  64 S10       29.96S WCI  27
Cincinnati     CLOUDY    29  24  82 S9        29.97R WCI  20
Columbus       CLOUDY    28  23  84 S3        29.98S
Detroit        PTCLDY    31  25  78 S10       29.88F WCI  22
Chicago O`Hare PTCLDY    38  28  67 S7        29.75F WCI  33
Minneapolis    PTCLDY    48  39  71 S10       29.37F
Indianapolis   CLOUDY    32  23  69 S8        29.92S WCI  25
Toronto Canada PTCLDY    36  27  69 S5        29.85S WCI  32

$$




USA.gov is the U.S. government's official web portal to all federal, state and local government web resources and services.